Saint Bonnet de Bellac- Haute Vienne - France
Donnes mto: dimanche, 11/12/2011
Date Horaire Temp. E. Hum. E. P.atmo. Pluie Vent Direction Direction Ensoleilleme Solaire P. de rose Temp au vent Rafales
11/12/2011 00:00 8,6 C 95 % 1015,9 hPa 0,0 mm 0,0 km/h (0 Bft) NE 45 0 min 0 W/m 7,8 C 8,6 C 0,0 km/h (0 Bft)
11/12/2011 00:05 8,6 C 95 % 1015,9 hPa 0,0 mm 0,0 km/h (0 Bft) NE 45 0 min 0 W/m 7,8 C 8,6 C 0,0 km/h (0 Bft)
11/12/2011 00:10 8,6 C 95 % 1015,9 hPa 0,0 mm 0,0 km/h (0 Bft) NE 45 0 min 0 W/m 7,8 C 8,6 C 0,0 km/h (0 Bft)
11/12/2011 00:15 8,7 C 95 % 1015,9 hPa 0,0 mm 0,0 km/h (0 Bft) NE 45 0 min 0 W/m 7,9 C 8,7 C 0,0 km/h (0 Bft)
11/12/2011 00:20 8,6 C 95 % 1015,9 hPa 0,0 mm 0,0 km/h (0 Bft) NE 45 0 min 0 W/m 7,8 C 8,6 C 0,0 km/h (0 Bft)
11/12/2011 00:25 8,6 C 95 % 1015,8 hPa 0,0 mm 0,0 km/h (0 Bft) NE 45 0 min 0 W/m 7,8 C 8,6 C 0,0 km/h (0 Bft)
11/12/2011 00:30 8,6 C 95 % 1015,7 hPa 0,0 mm 0,0 km/h (0 Bft) NE 45 0 min 0 W/m 7,8 C 8,6 C 0,0 km/h (0 Bft)
11/12/2011 00:35 8,6 C 95 % 1015,6 hPa 0,0 mm 0,0 km/h (0 Bft) NE 45 0 min 0 W/m 7,8 C 8,6 C 0,0 km/h (0 Bft)
11/12/2011 00:40 8,6 C 95 % 1015,7 hPa 0,0 mm 0,0 km/h (0 Bft) NE 45 0 min 0 W/m 7,8 C 8,6 C 0,0 km/h (0 Bft)
11/12/2011 00:45 8,6 C 95 % 1015,6 hPa 0,0 mm 0,4 km/h (0 Bft) NE 45 0 min 0 W/m 7,8 C 8,6 C 0,4 km/h (0 Bft)
11/12/2011 00:50 8,6 C 95 % 1015,6 hPa 0,0 mm 0,0 km/h (0 Bft) NE 45 0 min 0 W/m 7,8 C 8,6 C 0,0 km/h (0 Bft)
11/12/2011 00:55 8,6 C 95 % 1015,6 hPa 0,0 mm 0,0 km/h (0 Bft) NE 45 0 min 0 W/m 7,8 C 8,6 C 0,0 km/h (0 Bft)
11/12/2011 01:00 8,6 C 95 % 1015,5 hPa 0,0 mm 0,0 km/h (0 Bft) NE 45 0 min 0 W/m 7,8 C 8,6 C 0,0 km/h (0 Bft)
11/12/2011 01:05 8,6 C 95 % 1015,6 hPa 0,0 mm 0,0 km/h (0 Bft) NE 45 0 min 0 W/m 7,8 C 8,6 C 0,0 km/h (0 Bft)
11/12/2011 01:10 8,6 C 95 % 1015,5 hPa 0,0 mm 0,0 km/h (0 Bft) NE 45 0 min 0 W/m 7,8 C 8,6 C 0,0 km/h (0 Bft)
11/12/2011 01:15 8,6 C 95 % 1015,5 hPa 0,0 mm 0,0 km/h (0 Bft) NE 45 0 min 0 W/m 7,8 C 8,6 C 0,0 km/h (0 Bft)
11/12/2011 01:20 8,6 C 95 % 1015,4 hPa 0,0 mm 0,0 km/h (0 Bft) NE 45 0 min 0 W/m 7,8 C 8,6 C 0,0 km/h (0 Bft)
11/12/2011 01:25 8,8 C 95 % 1015,4 hPa 0,0 mm 2,2 km/h (1 Bft) E-SE 112 0 min 0 W/m 8,0 C 8,8 C 2,2 km/h (1 Bft)
11/12/2011 01:30 8,8 C 95 % 1015,3 hPa 0,0 mm 0,7 km/h (0 Bft) E-SE 112 0 min 0 W/m 8,0 C 8,8 C 3,6 km/h (1 Bft)
11/12/2011 01:35 8,9 C 95 % 1015,3 hPa 0,0 mm 0,0 km/h (0 Bft) E-SE 112 0 min 0 W/m 8,1 C 8,9 C 0,0 km/h (0 Bft)
11/12/2011 01:40 8,9 C 95 % 1015,2 hPa 0,0 mm 0,0 km/h (0 Bft) E-SE 112 0 min 0 W/m 8,1 C 8,9 C 3,2 km/h (1 Bft)
11/12/2011 01:45 8,9 C 95 % 1015,2 hPa 0,0 mm 0,0 km/h (0 Bft) E-SE 112 0 min 0 W/m 8,1 C 8,9 C 0,0 km/h (0 Bft)
11/12/2011 01:50 8,9 C 95 % 1015,1 hPa 0,0 mm 0,0 km/h (0 Bft) E-SE 112 0 min 0 W/m 8,1 C 8,9 C 0,0 km/h (0 Bft)
11/12/2011 01:55 8,9 C 95 % 1015,0 hPa 0,0 mm 0,0 km/h (0 Bft) E-SE 112 0 min 0 W/m 8,1 C 8,9 C 0,0 km/h (0 Bft)
11/12/2011 02:02 8,9 C 95 % 1015,0 hPa 0,0 mm 0,0 km/h (0 Bft) E-SE 112 0 min 0 W/m 8,1 C 8,9 C 0,0 km/h (0 Bft)
11/12/2011 02:05 8,9 C 95 % 1014,9 hPa 0,0 mm 0,0 km/h (0 Bft) E-SE 112 0 min 0 W/m 8,1 C 8,9 C 0,0 km/h (0 Bft)
11/12/2011 02:10 8,9 C 95 % 1015,0 hPa 0,0 mm 0,0 km/h (0 Bft) E-SE 112 0 min 0 W/m 8,1 C 8,9 C 0,0 km/h (0 Bft)
11/12/2011 02:15 8,8 C 95 % 1014,9 hPa 0,0 mm 0,0 km/h (0 Bft) E-SE 112 0 min 0 W/m 8,0 C 8,8 C 0,0 km/h (0 Bft)
11/12/2011 02:20 8,8 C 95 % 1014,9 hPa 0,0 mm 0,0 km/h (0 Bft) E-SE 112 0 min 0 W/m 8,0 C 8,8 C 0,0 km/h (0 Bft)
11/12/2011 02:25 8,7 C 95 % 1014,8 hPa 0,0 mm 0,0 km/h (0 Bft) E-SE 112 0 min 0 W/m 7,9 C 8,7 C 0,0 km/h (0 Bft)
11/12/2011 02:30 8,7 C 95 % 1014,8 hPa 0,0 mm 0,0 km/h (0 Bft) E-SE 112 0 min 0 W/m 7,9 C 8,7 C 0,0 km/h (0 Bft)
11/12/2011 02:35 8,6 C 95 % 1014,8 hPa 0,0 mm 0,0 km/h (0 Bft) E-SE 112 0 min 0 W/m 7,8 C 8,6 C 0,0 km/h (0 Bft)
11/12/2011 02:40 8,6 C 95 % 1014,8 hPa 0,0 mm 0,0 km/h (0 Bft) E-SE 112 0 min 0 W/m 7,8 C 8,6 C 0,0 km/h (0 Bft)
11/12/2011 02:45 8,6 C 95 % 1014,9 hPa 0,0 mm 0,0 km/h (0 Bft) E-SE 112 0 min 0 W/m 7,8 C 8,6 C 0,0 km/h (0 Bft)
11/12/2011 02:50 8,6 C 95 % 1014,9 hPa 0,0 mm 0,0 km/h (0 Bft) E-SE 112 0 min 0 W/m 7,8 C 8,6 C 0,0 km/h (0 Bft)
11/12/2011 02:55 8,6 C 95 % 1014,9 hPa 0,0 mm 0,0 km/h (0 Bft) E-SE 112 0 min 0 W/m 7,8 C 8,6 C 0,0 km/h (0 Bft)
11/12/2011 03:00 8,6 C 95 % 1014,8 hPa 0,0 mm 0,0 km/h (0 Bft) E-SE 112 0 min 0 W/m 7,8 C 8,6 C 0,0 km/h (0 Bft)
11/12/2011 03:05 8,6 C 95 % 1014,7 hPa 0,0 mm 0,0 km/h (0 Bft) E-SE 112 0 min 0 W/m 7,8 C 8,6 C 0,0 km/h (0 Bft)
11/12/2011 03:10 8,6 C 95 % 1014,8 hPa 0,0 mm 0,0 km/h (0 Bft) E-SE 112 0 min 0 W/m 7,8 C 8,6 C 0,0 km/h (0 Bft)
11/12/2011 03:15 8,6 C 95 % 1014,8 hPa 0,0 mm 0,0 km/h (0 Bft) E-SE 112 0 min 0 W/m 7,8 C 8,6 C 0,0 km/h (0 Bft)
11/12/2011 03:20 8,6 C 95 % 1014,8 hPa 0,0 mm 0,0 km/h (0 Bft) E-SE 112 0 min 0 W/m 7,8 C 8,6 C 0,0 km/h (0 Bft)
11/12/2011 03:25 8,6 C 95 % 1014,7 hPa 0,0 mm 0,0 km/h (0 Bft) E-SE 112 0 min 0 W/m 7,8 C 8,6 C 0,0 km/h (0 Bft)
11/12/2011 03:30 8,6 C 95 % 1014,8 hPa 0,0 mm 0,0 km/h (0 Bft) E-SE 112 0 min 0 W/m 7,8 C 8,6 C 0,0 km/h (0 Bft)
11/12/2011 03:35 8,6 C 95 % 1014,8 hPa 0,0 mm 0,0 km/h (0 Bft) E-SE 112 0 min 0 W/m 7,8 C 8,6 C 0,0 km/h (0 Bft)
11/12/2011 03:40 8,6 C 95 % 1014,7 hPa 0,0 mm 0,0 km/h (0 Bft) E-SE 112 0 min 0 W/m 7,8 C 8,6 C 0,0 km/h (0 Bft)
11/12/2011 03:45 8,6 C 95 % 1014,7 hPa 0,0 mm 0,0 km/h (0 Bft) E-SE 112 0 min 0 W/m 7,8 C 8,6 C 0,0 km/h (0 Bft)
11/12/2011 03:50 8,6 C 95 % 1014,5 hPa 0,0 mm 0,0 km/h (0 Bft) E-SE 112 0 min 0 W/m 7,8 C 8,6 C 0,0 km/h (0 Bft)
11/12/2011 03:55 8,6 C 95 % 1014,5 hPa 0,0 mm 0,0 km/h (0 Bft) E-SE 112 0 min 0 W/m 7,8 C 8,6 C 0,0 km/h (0 Bft)
11/12/2011 04:00 8,6 C 95 % 1014,5 hPa 0,0 mm 0,0 km/h (0 Bft) E-SE 112 0 min 0 W/m 7,8 C 8,6 C 0,0 km/h (0 Bft)
11/12/2011 04:05 8,6 C 95 % 1014,5 hPa 0,0 mm 0,0 km/h (0 Bft) E-SE 112 0 min 0 W/m 7,8 C 8,6 C 0,0 km/h (0 Bft)
11/12/2011 04:10 8,5 C 95 % 1014,4 hPa 0,0 mm 0,0 km/h (0 Bft) E-SE 112 0 min 0 W/m 7,7 C 8,5 C 0,0 km/h (0 Bft)
11/12/2011 04:15 8,4 C 95 % 1014,4 hPa 0,0 mm 0,0 km/h (0 Bft) E-SE 112 0 min 0 W/m 7,6 C 8,4 C 2,9 km/h (1 Bft)
11/12/2011 04:20 8,3 C 95 % 1014,4 hPa 0,0 mm 0,0 km/h (0 Bft) E-SE 112 0 min 0 W/m 7,5 C 8,3 C 0,0 km/h (0 Bft)
11/12/2011 04:25 8,3 C 95 % 1014,4 hPa 0,0 mm 0,0 km/h (0 Bft) E-SE 112 0 min 0 W/m 7,5 C 8,3 C 0,0 km/h (0 Bft)
11/12/2011 04:30 8,3 C 95 % 1014,4 hPa 0,0 mm 0,0 km/h (0 Bft) E-SE 112 0 min 0 W/m 7,5 C 8,3 C 0,0 km/h (0 Bft)
11/12/2011 04:35 8,2 C 95 % 1014,3 hPa 0,0 mm 0,0 km/h (0 Bft) E-SE 112 0 min 0 W/m 7,4 C 8,2 C 0,0 km/h (0 Bft)
11/12/2011 04:40 8,2 C 95 % 1014,3 hPa 0,0 mm 0,0 km/h (0 Bft) E-SE 112 0 min 0 W/m 7,4 C 8,2 C 0,0 km/h (0 Bft)
11/12/2011 04:45 8,2 C 95 % 1014,3 hPa 0,0 mm 0,0 km/h (0 Bft) E-SE 112 0 min 0 W/m 7,4 C 8,2 C 0,0 km/h (0 Bft)
11/12/2011 04:50 8,1 C 95 % 1014,3 hPa 0,0 mm 0,0 km/h (0 Bft) E-SE 112 0 min 0 W/m 7,3 C 8,1 C 0,0 km/h (0 Bft)
11/12/2011 04:55 8,1 C 95 % 1014,2 hPa 0,0 mm 0,0 km/h (0 Bft) E-SE 112 0 min 0 W/m 7,3 C 8,1 C 0,0 km/h (0 Bft)
11/12/2011 05:00 8,2 C 95 % 1014,3 hPa 0,0 mm 0,0 km/h (0 Bft) E-SE 112 0 min 0 W/m 7,4 C 8,2 C 0,0 km/h (0 Bft)
11/12/2011 05:05 8,2 C 95 % 1014,3 hPa 0,0 mm 0,0 km/h (0 Bft) E-SE 112 0 min 0 W/m 7,4 C 8,2 C 0,0 km/h (0 Bft)
11/12/2011 05:10 8,2 C 95 % 1014,2 hPa 0,0 mm 0,0 km/h (0 Bft) E-SE 112 0 min 0 W/m 7,4 C 8,2 C 0,0 km/h (0 Bft)
11/12/2011 05:15 8,3 C 95 % 1014,2 hPa 0,0 mm 0,0 km/h (0 Bft) E-SE 112 0 min 0 W/m 7,5 C 8,3 C 0,0 km/h (0 Bft)
11/12/2011 05:20 8,3 C 95 % 1014,1 hPa 0,0 mm 0,0 km/h (0 Bft) E-SE 112 0 min 0 W/m 7,5 C 8,3 C 0,0 km/h (0 Bft)
11/12/2011 05:25 8,3 C 95 % 1014,3 hPa 0,0 mm 0,0 km/h (0 Bft) E-SE 112 0 min 0 W/m 7,5 C 8,3 C 0,0 km/h (0 Bft)
11/12/2011 05:30 8,3 C 95 % 1014,1 hPa 0,0 mm 0,0 km/h (0 Bft) E-SE 112 0 min 0 W/m 7,5 C 8,3 C 0,0 km/h (0 Bft)
11/12/2011 05:35 8,4 C 95 % 1014,1 hPa 0,0 mm 0,0 km/h (0 Bft) E-SE 112 0 min 0 W/m 7,6 C 8,4 C 0,0 km/h (0 Bft)
11/12/2011 05:40 8,4 C 95 % 1014,3 hPa 0,0 mm 0,0 km/h (0 Bft) E-SE 112 0 min 0 W/m 7,6 C 8,4 C 0,0 km/h (0 Bft)
11/12/2011 05:45 8,4 C 95 % 1014,2 hPa 0,0 mm 0,0 km/h (0 Bft) E-SE 112 0 min 0 W/m 7,6 C 8,4 C 0,0 km/h (0 Bft)
11/12/2011 05:50 8,4 C 95 % 1014,3 hPa 0,0 mm 0,0 km/h (0 Bft) E-SE 112 0 min 0 W/m 7,6 C 8,4 C 0,0 km/h (0 Bft)
11/12/2011 05:55 8,4 C 95 % 1014,3 hPa 0,0 mm 0,0 km/h (0 Bft) E-SE 112 0 min 0 W/m 7,6 C 8,4 C 0,0 km/h (0 Bft)
11/12/2011 06:00 8,4 C 95 % 1014,3 hPa 0,0 mm 0,0 km/h (0 Bft) E-SE 112 0 min 0 W/m 7,6 C 8,4 C 0,0 km/h (0 Bft)
11/12/2011 06:05 8,4 C 95 % 1014,3 hPa 0,0 mm 0,0 km/h (0 Bft) E-SE 112 0 min 0 W/m 7,6 C 8,4 C 0,0 km/h (0 Bft)
11/12/2011 06:10 8,4 C 95 % 1014,3 hPa 0,0 mm 0,0 km/h (0 Bft) E-SE 112 0 min 0 W/m 7,6 C 8,4 C 0,0 km/h (0 Bft)
11/12/2011 06:15 8,4 C 95 % 1014,2 hPa 0,0 mm 0,0 km/h (0 Bft) E-SE 112 0 min 0 W/m 7,6 C 8,4 C 0,0 km/h (0 Bft)
11/12/2011 06:20 8,4 C 95 % 1014,2 hPa 0,0 mm 0,0 km/h (0 Bft) E-SE 112 0 min 0 W/m 7,6 C 8,4 C 0,0 km/h (0 Bft)
11/12/2011 06:25 8,4 C 95 % 1014,3 hPa 0,0 mm 0,0 km/h (0 Bft) E-SE 112 0 min 0 W/m 7,6 C 8,4 C 0,0 km/h (0 Bft)
11/12/2011 06:30 8,4 C 95 % 1014,2 hPa 0,0 mm 0,0 km/h (0 Bft) E-SE 112 0 min 0 W/m 7,6 C 8,4 C 0,0 km/h (0 Bft)
11/12/2011 06:35 8,4 C 95 % 1014,3 hPa 0,0 mm 0,0 km/h (0 Bft) E-SE 112 0 min 0 W/m 7,6 C 8,4 C 0,0 km/h (0 Bft)
11/12/2011 06:40 8,3 C 95 % 1014,2 hPa 0,0 mm 0,0 km/h (0 Bft) E-SE 112 0 min 0 W/m 7,5 C 8,3 C 0,0 km/h (0 Bft)
11/12/2011 06:45 8,3 C 95 % 1014,2 hPa 0,0 mm 0,0 km/h (0 Bft) E-SE 112 0 min 0 W/m 7,5 C 8,3 C 0,0 km/h (0 Bft)
11/12/2011 06:50 8,4 C 95 % 1014,2 hPa 0,0 mm 0,0 km/h (0 Bft) E-SE 112 0 min 0 W/m 7,6 C 8,4 C 0,0 km/h (0 Bft)
11/12/2011 06:55 8,4 C 95 % 1014,2 hPa 0,0 mm 0,0 km/h (0 Bft) E-SE 112 0 min 0 W/m 7,6 C 8,4 C 0,0 km/h (0 Bft)
11/12/2011 07:00 8,4 C 95 % 1014,2 hPa 0,0 mm 0,0 km/h (0 Bft) E-SE 112 0 min 0 W/m 7,6 C 8,4 C 0,0 km/h (0 Bft)
11/12/2011 07:05 8,3 C 95 % 1014,1 hPa 0,0 mm 0,0 km/h (0 Bft) E-SE 112 0 min 0 W/m 7,5 C 8,3 C 0,0 km/h (0 Bft)
11/12/2011 07:10 8,3 C 95 % 1014,2 hPa 0,0 mm 0,0 km/h (0 Bft) E-SE 112 0 min 0 W/m 7,5 C 8,3 C 0,0 km/h (0 Bft)
11/12/2011 07:15 8,3 C 95 % 1014,2 hPa 0,0 mm 0,0 km/h (0 Bft) E-SE 112 0 min 0 W/m 7,5 C 8,3 C 0,0 km/h (0 Bft)
11/12/2011 07:20 8,3 C 95 % 1014,2 hPa 0,0 mm 0,0 km/h (0 Bft) E-SE 112 0 min 0 W/m 7,5 C 8,3 C 0,0 km/h (0 Bft)
11/12/2011 07:25 8,3 C 95 % 1014,2 hPa 0,0 mm 0,0 km/h (0 Bft) E-SE 112 0 min 0 W/m 7,5 C 8,3 C 0,0 km/h (0 Bft)
11/12/2011 07:30 8,3 C 95 % 1014,2 hPa 0,0 mm 0,0 km/h (0 Bft) E-SE 112 0 min 0 W/m 7,5 C 8,3 C 0,0 km/h (0 Bft)
11/12/2011 07:35 8,3 C 95 % 1014,2 hPa 0,0 mm 0,0 km/h (0 Bft) E-SE 112 0 min 0 W/m 7,5 C 8,3 C 0,0 km/h (0 Bft)
11/12/2011 07:40 8,3 C 95 % 1014,2 hPa 0,0 mm 0,0 km/h (0 Bft) E-SE 112 0 min 0 W/m 7,5 C 8,3 C 0,0 km/h (0 Bft)
11/12/2011 07:45 8,3 C 95 % 1014,2 hPa 0,0 mm 0,0 km/h (0 Bft) E-SE 112 0 min 0 W/m 7,5 C 8,3 C 0,0 km/h (0 Bft)
11/12/2011 07:50 8,3 C 95 % 1014,2 hPa 0,0 mm 0,0 km/h (0 Bft) E-SE 112 0 min 0 W/m 7,5 C 8,3 C 0,0 km/h (0 Bft)
11/12/2011 07:55 8,3 C 95 % 1014,1 hPa 0,0 mm 0,0 km/h (0 Bft) E-SE 112 0 min 0 W/m 7,5 C 8,3 C 0,0 km/h (0 Bft)
11/12/2011 08:00 8,3 C 95 % 1014,1 hPa 0,0 mm 0,0 km/h (0 Bft) E-SE 112 0 min 0 W/m 7,5 C 8,3 C 2,9 km/h (1 Bft)
11/12/2011 08:05 8,3 C 95 % 1014,1 hPa 0,0 mm 0,0 km/h (0 Bft) E-SE 112 0 min 0 W/m 7,5 C 8,3 C 0,0 km/h (0 Bft)
11/12/2011 08:10 8,3 C 95 % 1014,1 hPa 0,0 mm 0,0 km/h (0 Bft) E-SE 112 0 min 0 W/m 7,5 C 8,3 C 0,0 km/h (0 Bft)
11/12/2011 08:15 8,3 C 95 % 1014,1 hPa 0,0 mm 0,0 km/h (0 Bft) E-SE 112 0 min 0 W/m 7,5 C 8,3 C 0,0 km/h (0 Bft)
11/12/2011 08:20 8,3 C 95 % 1014,2 hPa 0,0 mm 0,0 km/h (0 Bft) E-SE 112 0 min 0 W/m 7,5 C 8,3 C 0,0 km/h (0 Bft)
11/12/2011 08:25 8,3 C 95 % 1014,2 hPa 0,0 mm 0,0 km/h (0 Bft) E-SE 112 0 min 0 W/m 7,5 C 8,3 C 0,0 km/h (0 Bft)
11/12/2011 08:30 8,4 C 95 % 1014,2 hPa 0,0 mm 0,0 km/h (0 Bft) E-SE 112 0 min 0 W/m 7,6 C 8,4 C 0,0 km/h (0 Bft)
11/12/2011 08:35 8,4 C 95 % 1014,2 hPa 0,0 mm 0,0 km/h (0 Bft) E-SE 112 0 min 0 W/m 7,6 C 8,4 C 0,0 km/h (0 Bft)
11/12/2011 08:40 8,4 C 95 % 1014,2 hPa 0,0 mm 0,0 km/h (0 Bft) E-SE 112 0 min 0 W/m 7,6 C 8,4 C 0,0 km/h (0 Bft)
11/12/2011 08:45 8,4 C 95 % 1014,2 hPa 0,0 mm 0,0 km/h (0 Bft) E-SE 112 0 min 0 W/m 7,6 C 8,4 C 0,0 km/h (0 Bft)
11/12/2011 08:50 8,4 C 95 % 1014,2 hPa 0,0 mm 0,0 km/h (0 Bft) E-SE 112 0 min 0 W/m 7,6 C 8,4 C 0,0 km/h (0 Bft)
11/12/2011 08:55 8,4 C 95 % 1014,3 hPa 0,0 mm 0,0 km/h (0 Bft) E-SE 112 0 min 0 W/m 7,6 C 8,4 C 0,0 km/h (0 Bft)
11/12/2011 09:00 8,4 C 95 % 1014,2 hPa 0,0 mm 0,0 km/h (0 Bft) E-SE 112 0 min 0 W/m 7,6 C 8,4 C 0,0 km/h (0 Bft)
11/12/2011 09:05 8,4 C 95 % 1014,1 hPa 0,0 mm 0,0 km/h (0 Bft) E-SE 112 0 min 0 W/m 7,6 C 8,4 C 0,0 km/h (0 Bft)
11/12/2011 09:10 8,5 C 95 % 1014,1 hPa 0,0 mm 0,0 km/h (0 Bft) E-SE 112 0 min 0 W/m 7,7 C 8,5 C 0,0 km/h (0 Bft)
11/12/2011 09:15 8,5 C 95 % 1014,0 hPa 0,0 mm 0,0 km/h (0 Bft) E-SE 112 0 min 0 W/m 7,7 C 8,5 C 0,0 km/h (0 Bft)
11/12/2011 09:20 8,5 C 95 % 1014,1 hPa 0,0 mm 0,0 km/h (0 Bft) E-SE 112 0 min 0 W/m 7,7 C 8,5 C 0,0 km/h (0 Bft)
11/12/2011 09:25 8,5 C 95 % 1014,1 hPa 0,0 mm 0,0 km/h (0 Bft) E-SE 112 0 min 0 W/m 7,7 C 8,5 C 0,0 km/h (0 Bft)
11/12/2011 09:30 8,5 C 95 % 1014,1 hPa 0,0 mm 0,0 km/h (0 Bft) E-SE 112 0 min 0 W/m 7,7 C 8,5 C 0,0 km/h (0 Bft)
11/12/2011 09:35 8,6 C 95 % 1014,1 hPa 0,0 mm 0,0 km/h (0 Bft) E-SE 112 0 min 0 W/m 7,8 C 8,6 C 0,0 km/h (0 Bft)
11/12/2011 09:40 8,6 C 95 % 1014,1 hPa 0,0 mm 0,0 km/h (0 Bft) E-SE 112 0 min 0 W/m 7,8 C 8,6 C 0,0 km/h (0 Bft)
11/12/2011 09:45 8,6 C 95 % 1014,1 hPa 0,0 mm 0,0 km/h (0 Bft) E-SE 112 0 min 0 W/m 7,8 C 8,6 C 0,0 km/h (0 Bft)
11/12/2011 09:50 8,8 C 95 % 1014,1 hPa 0,0 mm 0,0 km/h (0 Bft) E-SE 112 0 min 0 W/m 8,0 C 8,8 C 0,0 km/h (0 Bft)
11/12/2011 09:55 8,8 C 96 % 1014,2 hPa 0,0 mm 0,7 km/h (0 Bft) E-SE 112 0 min 0 W/m 8,2 C 8,8 C 3,6 km/h (1 Bft)
11/12/2011 10:00 8,8 C 96 % 1014,2 hPa 0,0 mm 0,0 km/h (0 Bft) E-SE 112 0 min 0 W/m 8,2 C 8,8 C 0,0 km/h (0 Bft)
11/12/2011 10:05 8,9 C 96 % 1014,1 hPa 0,0 mm 1,1 km/h (1 Bft) S-SE 157 0 min 0 W/m 8,3 C 8,9 C 4,0 km/h (1 Bft)
11/12/2011 10:10 8,9 C 96 % 1014,2 hPa 0,0 mm 0,0 km/h (0 Bft) S-SE 157 0 min 0 W/m 8,3 C 8,9 C 0,0 km/h (0 Bft)
11/12/2011 10:15 9,1 C 96 % 1014,3 hPa 0,0 mm 0,0 km/h (0 Bft) S-SE 157 0 min 0 W/m 8,5 C 9,1 C 2,9 km/h (1 Bft)
11/12/2011 10:20 9,1 C 96 % 1014,3 hPa 0,0 mm 0,0 km/h (0 Bft) S-SE 157 0 min 0 W/m 8,5 C 9,1 C 0,0 km/h (0 Bft)
11/12/2011 10:25 9,1 C 96 % 1014,3 hPa 0,0 mm 1,8 km/h (1 Bft) S-SE 157 0 min 0 W/m 8,5 C 9,1 C 4,0 km/h (1 Bft)
11/12/2011 10:30 9,1 C 96 % 1014,3 hPa 0,0 mm 0,7 km/h (0 Bft) S-SE 157 0 min 0 W/m 8,5 C 9,1 C 4,0 km/h (1 Bft)
11/12/2011 10:35 9,2 C 96 % 1014,3 hPa 0,0 mm 0,0 km/h (0 Bft) S-SE 157 0 min 0 W/m 8,6 C 9,2 C 0,0 km/h (0 Bft)
11/12/2011 10:40 9,2 C 96 % 1014,3 hPa 0,0 mm 0,0 km/h (0 Bft) S-SE 157 0 min 0 W/m 8,6 C 9,2 C 0,0 km/h (0 Bft)
11/12/2011 10:45 9,2 C 96 % 1014,4 hPa 0,0 mm 0,0 km/h (0 Bft) S-SE 157 0 min 0 W/m 8,6 C 9,2 C 0,0 km/h (0 Bft)
11/12/2011 10:50 9,2 C 96 % 1014,4 hPa 0,0 mm 0,0 km/h (0 Bft) S-SE 157 0 min 0 W/m 8,6 C 9,2 C 0,0 km/h (0 Bft)
11/12/2011 10:55 9,3 C 96 % 1014,5 hPa 0,0 mm 1,1 km/h (1 Bft) S 180 0 min 0 W/m 8,7 C 9,3 C 4,0 km/h (1 Bft)
11/12/2011 11:00 9,4 C 95 % 1014,4 hPa 0,0 mm 0,0 km/h (0 Bft) S 180 0 min 0 W/m 8,6 C 9,4 C 0,0 km/h (0 Bft)
11/12/2011 11:05 9,4 C 95 % 1014,5 hPa 0,0 mm 5,4 km/h (2 Bft) S 180 0 min 0 W/m 8,6 C 9,0 C 8,3 km/h (2 Bft)
11/12/2011 11:10 9,4 C 95 % 1014,4 hPa 0,0 mm 1,4 km/h (1 Bft) S-SO 202 0 min 0 W/m 8,6 C 9,4 C 2,9 km/h (1 Bft)
11/12/2011 11:15 9,5 C 95 % 1014,4 hPa 0,0 mm 2,5 km/h (1 Bft) SO 225 0 min 0 W/m 8,7 C 9,5 C 3,6 km/h (1 Bft)
11/12/2011 11:20 9,6 C 94 % 1014,4 hPa 0,0 mm 2,5 km/h (1 Bft) O-SO 247 0 min 0 W/m 8,7 C 9,6 C 4,0 km/h (1 Bft)
11/12/2011 11:25 9,6 C 94 % 1014,4 hPa 0,0 mm 6,8 km/h (2 Bft) S-SO 202 0 min 0 W/m 8,7 C 8,8 C 8,6 km/h (2 Bft)
11/12/2011 11:30 9,6 C 94 % 1014,3 hPa 0,0 mm 3,6 km/h (1 Bft) SO 225 0 min 0 W/m 8,7 C 9,6 C 7,6 km/h (2 Bft)
11/12/2011 11:35 9,7 C 93 % 1014,4 hPa 0,0 mm 3,6 km/h (1 Bft) SO 225 0 min 0 W/m 8,6 C 9,7 C 5,8 km/h (2 Bft)
11/12/2011 11:40 9,8 C 93 % 1014,2 hPa 0,0 mm 4,7 km/h (1 Bft) SO 225 0 min 0 W/m 8,7 C 9,6 C 4,7 km/h (1 Bft)
11/12/2011 11:45 9,8 C 93 % 1014,2 hPa 0,0 mm 3,2 km/h (1 Bft) S-SO 202 0 min 0 W/m 8,7 C 9,8 C 7,2 km/h (2 Bft)
11/12/2011 11:50 9,8 C 93 % 1014,1 hPa 0,0 mm 2,9 km/h (1 Bft) S-SO 202 0 min 0 W/m 8,7 C 9,8 C 6,8 km/h (2 Bft)
11/12/2011 11:55 9,8 C 92 % 1014,1 hPa 0,0 mm 3,2 km/h (1 Bft) S-SO 202 0 min 0 W/m 8,6 C 9,8 C 4,0 km/h (1 Bft)
11/12/2011 12:00 9,8 C 92 % 1014,0 hPa 0,0 mm 4,0 km/h (1 Bft) SO 225 0 min 0 W/m 8,6 C 9,8 C 6,1 km/h (2 Bft)
11/12/2011 12:05 9,9 C 92 % 1014,0 hPa 0,0 mm 4,7 km/h (1 Bft) S-SO 202 0 min 0 W/m 8,7 C 9,7 C 8,3 km/h (2 Bft)
11/12/2011 12:10 9,9 C 92 % 1014,0 hPa 0,0 mm 3,6 km/h (1 Bft) S-SO 202 0 min 0 W/m 8,7 C 9,9 C 6,1 km/h (2 Bft)
11/12/2011 12:15 9,9 C 92 % 1014,0 hPa 0,0 mm 7,2 km/h (2 Bft) SO 225 0 min 0 W/m 8,7 C 9,1 C 9,7 km/h (2 Bft)
11/12/2011 12:20 9,9 C 92 % 1014,0 hPa 0,0 mm 2,9 km/h (1 Bft) SO 225 0 min 0 W/m 8,7 C 9,9 C 5,4 km/h (2 Bft)
11/12/2011 12:25 9,8 C 92 % 1013,9 hPa 0,0 mm 4,7 km/h (1 Bft) S-SO 202 0 min 0 W/m 8,6 C 9,6 C 7,6 km/h (2 Bft)
11/12/2011 12:30 9,8 C 92 % 1013,8 hPa 0,0 mm 7,9 km/h (2 Bft) SO 225 0 min 0 W/m 8,6 C 8,8 C 10,1 km/h (2 Bft)
11/12/2011 12:35 9,8 C 92 % 1013,7 hPa 0,0 mm 3,6 km/h (1 Bft) SO 225 0 min 0 W/m 8,6 C 9,8 C 7,6 km/h (2 Bft)
11/12/2011 12:40 9,8 C 92 % 1013,6 hPa 0,0 mm 8,6 km/h (2 Bft) O-SO 247 0 min 0 W/m 8,6 C 8,7 C 10,1 km/h (2 Bft)
11/12/2011 12:45 9,8 C 92 % 1013,6 hPa 0,0 mm 3,6 km/h (1 Bft) S-SO 202 0 min 0 W/m 8,6 C 9,8 C 6,5 km/h (2 Bft)
11/12/2011 12:50 9,8 C 92 % 1013,5 hPa 0,0 mm 1,8 km/h (1 Bft) S-SO 202 0 min 0 W/m 8,6 C 9,8 C 4,0 km/h (1 Bft)
11/12/2011 12:55 9,8 C 92 % 1013,4 hPa 0,1 mm 6,1 km/h (2 Bft) SO 225 0 min 0 W/m 8,6 C 9,2 C 7,9 km/h (2 Bft)
11/12/2011 13:00 9,8 C 92 % 1013,4 hPa 0,0 mm 1,4 km/h (1 Bft) SO 225 0 min 0 W/m 8,6 C 9,8 C 3,6 km/h (1 Bft)
11/12/2011 13:05 9,8 C 92 % 1013,4 hPa 0,0 mm 2,5 km/h (1 Bft) SO 225 0 min 0 W/m 8,6 C 9,8 C 4,3 km/h (1 Bft)
11/12/2011 13:10 9,8 C 92 % 1013,4 hPa 0,0 mm 2,5 km/h (1 Bft) SO 225 0 min 0 W/m 8,6 C 9,8 C 2,5 km/h (1 Bft)
11/12/2011 13:15 9,8 C 92 % 1013,3 hPa 0,0 mm 3,6 km/h (1 Bft) S 180 0 min 0 W/m 8,6 C 9,8 C 7,2 km/h (2 Bft)
11/12/2011 13:20 9,8 C 92 % 1013,2 hPa 0,0 mm 3,2 km/h (1 Bft) SO 225 0 min 0 W/m 8,6 C 9,8 C 4,0 km/h (1 Bft)
11/12/2011 13:25 9,8 C 92 % 1013,1 hPa 0,0 mm 2,5 km/h (1 Bft) SO 225 0 min 0 W/m 8,6 C 9,8 C 4,3 km/h (1 Bft)
11/12/2011 13:30 9,8 C 92 % 1013,1 hPa 0,0 mm 5,8 km/h (2 Bft) S-SO 202 0 min 0 W/m 8,6 C 9,3 C 7,6 km/h (2 Bft)
11/12/2011 13:35 9,8 C 92 % 1013,0 hPa 0,0 mm 5,4 km/h (2 Bft) SO 225 0 min 0 W/m 8,6 C 9,4 C 6,8 km/h (2 Bft)
11/12/2011 13:40 9,8 C 92 % 1013,0 hPa 0,0 mm 3,2 km/h (1 Bft) S-SO 202 0 min 0 W/m 8,6 C 9,8 C 6,1 km/h (2 Bft)
11/12/2011 13:45 9,8 C 92 % 1012,9 hPa 0,0 mm 1,8 km/h (1 Bft) S-SO 202 0 min 0 W/m 8,6 C 9,8 C 4,0 km/h (1 Bft)
11/12/2011 13:50 9,8 C 92 % 1012,8 hPa 0,0 mm 2,2 km/h (1 Bft) S-SO 202 0 min 0 W/m 8,6 C 9,8 C 2,2 km/h (1 Bft)
11/12/2011 13:55 9,9 C 93 % 1012,9 hPa 0,0 mm 5,8 km/h (2 Bft) S-SO 202 0 min 0 W/m 8,8 C 9,4 C 7,2 km/h (2 Bft)
11/12/2011 14:00 9,9 C 92 % 1012,7 hPa 0,0 mm 3,2 km/h (1 Bft) S-SO 202 0 min 0 W/m 8,7 C 9,9 C 4,7 km/h (1 Bft)
11/12/2011 14:05 9,9 C 92 % 1012,6 hPa 0,0 mm 4,7 km/h (1 Bft) S-SO 202 0 min 0 W/m 8,7 C 9,7 C 6,8 km/h (2 Bft)
11/12/2011 14:10 10,0 C 92 % 1012,6 hPa 0,0 mm 4,0 km/h (1 Bft) SO 225 0 min 0 W/m 8,8 C 10,0 C 7,9 km/h (2 Bft)
11/12/2011 14:15 10,0 C 92 % 1012,5 hPa 0,0 mm 2,5 km/h (1 Bft) S-SO 202 0 min 0 W/m 8,8 C 10,0 C 6,5 km/h (2 Bft)
11/12/2011 14:20 10,1 C 92 % 1012,5 hPa 0,0 mm 5,0 km/h (1 Bft) S-SO 202 0 min 0 W/m 8,9 C 10,1 C 11,5 km/h (2 Bft)
11/12/2011 14:25 10,1 C 92 % 1012,5 hPa 0,0 mm 6,8 km/h (2 Bft) S-SO 202 0 min 0 W/m 8,9 C 10,1 C 6,8 km/h (2 Bft)
11/12/2011 14:30 10,1 C 92 % 1012,5 hPa 0,0 mm 0,4 km/h (0 Bft) S-SO 202 0 min 0 W/m 8,9 C 10,1 C 0,4 km/h (0 Bft)
11/12/2011 14:35 10,1 C 91 % 1012,4 hPa 0,0 mm 5,8 km/h (2 Bft) SO 225 0 min 0 W/m 8,7 C 10,1 C 7,2 km/h (2 Bft)
11/12/2011 14:40 10,1 C 91 % 1012,3 hPa 0,0 mm 3,6 km/h (1 Bft) SO 225 0 min 0 W/m 8,7 C 10,1 C 7,2 km/h (2 Bft)
11/12/2011 14:45 10,1 C 91 % 1012,3 hPa 0,0 mm 2,9 km/h (1 Bft) SO 225 0 min 0 W/m 8,7 C 10,1 C 6,1 km/h (2 Bft)
11/12/2011 14:50 10,2 C 91 % 1012,2 hPa 0,0 mm 6,5 km/h (2 Bft) S-SO 202 0 min 0 W/m 8,8 C 10,2 C 7,9 km/h (2 Bft)
11/12/2011 14:55 10,1 C 91 % 1012,2 hPa 0,0 mm 3,2 km/h (1 Bft) S-SO 202 0 min 0 W/m 8,7 C 10,1 C 6,1 km/h (2 Bft)
11/12/2011 15:00 10,1 C 91 % 1012,2 hPa 0,0 mm 3,2 km/h (1 Bft) SO 225 0 min 0 W/m 8,7 C 10,1 C 3,2 km/h (1 Bft)
11/12/2011 15:05 10,2 C 90 % 1012,1 hPa 0,0 mm 6,8 km/h (2 Bft) S-SO 202 0 min 0 W/m 8,6 C 10,2 C 9,4 km/h (2 Bft)
11/12/2011 15:10 10,3 C 90 % 1012,1 hPa 0,0 mm 5,4 km/h (2 Bft) S-SE 157 0 min 0 W/m 8,7 C 10,3 C 9,4 km/h (2 Bft)
11/12/2011 15:15 10,3 C 90 % 1012,0 hPa 0,0 mm 4,3 km/h (1 Bft) S-SO 202 0 min 0 W/m 8,7 C 10,3 C 4,3 km/h (1 Bft)
11/12/2011 15:20 10,3 C 90 % 1012,0 hPa 0,0 mm 5,8 km/h (2 Bft) S 180 0 min 0 W/m 8,7 C 10,3 C 11,9 km/h (2 Bft)
11/12/2011 15:25 10,3 C 89 % 1011,9 hPa 0,0 mm 6,8 km/h (2 Bft) S-SO 202 0 min 0 W/m 8,6 C 10,3 C 12,2 km/h (2 Bft)
11/12/2011 15:30 10,3 C 89 % 1011,8 hPa 0,0 mm 4,3 km/h (1 Bft) S-SO 202 0 min 0 W/m 8,6 C 10,3 C 8,3 km/h (2 Bft)
11/12/2011 15:35 10,3 C 89 % 1011,8 hPa 0,0 mm 9,4 km/h (2 Bft) S-SO 202 0 min 0 W/m 8,6 C 10,3 C 16,2 km/h (3 Bft)
11/12/2011 15:40 10,3 C 89 % 1011,8 hPa 0,0 mm 5,0 km/h (1 Bft) S 180 0 min 0 W/m 8,6 C 10,3 C 7,6 km/h (2 Bft)
11/12/2011 15:45 10,3 C 89 % 1011,9 hPa 0,0 mm 4,0 km/h (1 Bft) S 180 0 min 0 W/m 8,6 C 10,3 C 9,7 km/h (2 Bft)
11/12/2011 15:50 10,3 C 89 % 1011,8 hPa 0,0 mm 6,1 km/h (2 Bft) S 180 0 min 0 W/m 8,6 C 10,3 C 6,8 km/h (2 Bft)
11/12/2011 15:55 10,3 C 89 % 1011,8 hPa 0,0 mm 6,1 km/h (2 Bft) N 360 0 min 0 W/m 8,6 C 10,3 C 6,1 km/h (2 Bft)
11/12/2011 16:00 10,2 C 88 % 1011,8 hPa 0,0 mm 3,6 km/h (1 Bft) S-SO 202 0 min 0 W/m 8,3 C 10,2 C 4,3 km/h (1 Bft)
11/12/2011 16:05 10,2 C 88 % 1011,6 hPa 0,0 mm 8,3 km/h (2 Bft) SO 225 0 min 0 W/m 8,3 C 10,2 C 8,3 km/h (2 Bft)
11/12/2011 16:10 10,2 C 88 % 1011,7 hPa 0,0 mm 5,8 km/h (2 Bft) S-SO 202 0 min 0 W/m 8,3 C 10,2 C 6,5 km/h (2 Bft)
11/12/2011 16:15 10,1 C 87 % 1011,6 hPa 0,0 mm 2,2 km/h (1 Bft) S-SO 202 0 min 0 W/m 8,0 C 10,1 C 7,2 km/h (2 Bft)
11/12/2011 16:20 10,1 C 87 % 1011,6 hPa 0,0 mm 8,3 km/h (2 Bft) S 180 0 min 0 W/m 8,0 C 10,1 C 8,3 km/h (2 Bft)
11/12/2011 16:25 10,1 C 87 % 1011,6 hPa 0,0 mm 6,5 km/h (2 Bft) S-SO 202 0 min 0 W/m 8,0 C 10,1 C 7,2 km/h (2 Bft)
11/12/2011 16:30 10,1 C 87 % 1011,6 hPa 0,0 mm 5,4 km/h (2 Bft) S 180 0 min 0 W/m 8,0 C 10,1 C 15,1 km/h (3 Bft)
11/12/2011 16:35 10,1 C 87 % 1011,6 hPa 0,0 mm 6,5 km/h (2 Bft) S-SO 202 0 min 0 W/m 8,0 C 10,1 C 10,4 km/h (2 Bft)
11/12/2011 16:40 10,1 C 87 % 1011,5 hPa 0,0 mm 4,3 km/h (1 Bft) S-SO 202 0 min 0 W/m 8,0 C 10,1 C 7,2 km/h (2 Bft)
11/12/2011 16:45 10,0 C 87 % 1011,4 hPa 0,0 mm 4,0 km/h (1 Bft) S 180 0 min 0 W/m 7,9 C 10,0 C 9,7 km/h (2 Bft)
11/12/2011 16:50 10,0 C 87 % 1011,5 hPa 0,0 mm 2,9 km/h (1 Bft) S 180 0 min 0 W/m 7,9 C 10,0 C 4,3 km/h (1 Bft)
11/12/2011 16:55 9,9 C 87 % 1011,4 hPa 0,0 mm 4,7 km/h (1 Bft) S-SO 202 0 min 0 W/m 7,8 C 9,7 C 7,2 km/h (2 Bft)
11/12/2011 17:00 9,9 C 87 % 1011,4 hPa 0,0 mm 3,2 km/h (1 Bft) S-SO 202 0 min 0 W/m 7,8 C 9,9 C 4,7 km/h (1 Bft)
11/12/2011 17:05 9,8 C 87 % 1011,4 hPa 0,0 mm 6,8 km/h (2 Bft) S-SO 202 0 min 0 W/m 7,7 C 9,0 C 9,7 km/h (2 Bft)
11/12/2011 17:10 9,8 C 87 % 1011,3 hPa 0,0 mm 5,4 km/h (2 Bft) S 180 0 min 0 W/m 7,7 C 9,4 C 9,4 km/h (2 Bft)
11/12/2011 17:15 9,8 C 87 % 1011,3 hPa 0,0 mm 6,8 km/h (2 Bft) S 180 0 min 0 W/m 7,7 C 9,0 C 13,0 km/h (3 Bft)
11/12/2011 17:20 9,8 C 87 % 1011,2 hPa 0,0 mm 3,6 km/h (1 Bft) SO 225 0 min 0 W/m 7,7 C 9,8 C 8,6 km/h (2 Bft)
11/12/2011 17:25 9,8 C 87 % 1011,2 hPa 0,0 mm 7,9 km/h (2 Bft) S-SE 157 0 min 0 W/m 7,7 C 8,8 C 8,3 km/h (2 Bft)
11/12/2011 17:30 9,8 C 87 % 1011,2 hPa 0,0 mm 7,2 km/h (2 Bft) S-SO 202 0 min 0 W/m 7,7 C 8,9 C 7,6 km/h (2 Bft)
11/12/2011 17:35 9,7 C 87 % 1011,2 hPa 0,0 mm 7,2 km/h (2 Bft) S-SO 202 0 min 0 W/m 7,6 C 8,8 C 13,3 km/h (3 Bft)
11/12/2011 17:40 9,7 C 87 % 1011,1 hPa 0,0 mm 6,5 km/h (2 Bft) S-SO 202 0 min 0 W/m 7,6 C 9,0 C 9,7 km/h (2 Bft)
11/12/2011 17:45 9,7 C 87 % 1011,2 hPa 0,0 mm 8,3 km/h (2 Bft) S 180 0 min 0 W/m 7,6 C 8,6 C 8,3 km/h (2 Bft)
11/12/2011 17:50 9,7 C 87 % 1011,1 hPa 0,0 mm 6,1 km/h (2 Bft) S-SO 202 0 min 0 W/m 7,6 C 9,1 C 14,0 km/h (3 Bft)
11/12/2011 17:55 9,6 C 87 % 1011,1 hPa 0,0 mm 6,1 km/h (2 Bft) SO 225 0 min 0 W/m 7,5 C 9,0 C 11,9 km/h (2 Bft)
11/12/2011 18:00 9,6 C 87 % 1011,1 hPa 0,0 mm 7,2 km/h (2 Bft) SO 225 0 min 0 W/m 7,5 C 8,7 C 8,3 km/h (2 Bft)
11/12/2011 18:05 9,6 C 87 % 1011,1 hPa 0,0 mm 5,8 km/h (2 Bft) SO 225 0 min 0 W/m 7,5 C 9,1 C 8,3 km/h (2 Bft)
11/12/2011 18:10 9,6 C 87 % 1011,2 hPa 0,0 mm 4,7 km/h (1 Bft) S-SO 202 0 min 0 W/m 7,5 C 9,4 C 6,8 km/h (2 Bft)
11/12/2011 18:15 9,5 C 87 % 1011,1 hPa 0,0 mm 4,3 km/h (1 Bft) SO 225 0 min 0 W/m 7,4 C 9,5 C 4,3 km/h (1 Bft)
11/12/2011 18:20 9,5 C 87 % 1011,0 hPa 0,0 mm 3,6 km/h (1 Bft) S-SO 202 0 min 0 W/m 7,4 C 9,5 C 4,0 km/h (1 Bft)
11/12/2011 18:25 9,5 C 87 % 1011,0 hPa 0,0 mm 4,0 km/h (1 Bft) SO 225 0 min 0 W/m 7,4 C 9,5 C 6,1 km/h (2 Bft)
11/12/2011 18:30 9,4 C 88 % 1011,0 hPa 0,0 mm 2,9 km/h (1 Bft) S-SO 202 0 min 0 W/m 7,5 C 9,4 C 7,2 km/h (2 Bft)
11/12/2011 18:35 9,4 C 88 % 1011,0 hPa 0,0 mm 5,8 km/h (2 Bft) S-SO 202 0 min 0 W/m 7,5 C 8,8 C 7,9 km/h (2 Bft)
11/12/2011 18:40 9,4 C 88 % 1010,9 hPa 0,0 mm 5,4 km/h (2 Bft) S 180 0 min 0 W/m 7,5 C 9,0 C 10,1 km/h (2 Bft)
11/12/2011 18:45 9,4 C 88 % 1010,9 hPa 0,0 mm 5,0 km/h (1 Bft) SE 135 0 min 0 W/m 7,5 C 9,1 C 7,2 km/h (2 Bft)
11/12/2011 18:50 9,4 C 88 % 1010,9 hPa 0,0 mm 5,8 km/h (2 Bft) S 180 0 min 0 W/m 7,5 C 8,8 C 7,9 km/h (2 Bft)
11/12/2011 18:55 9,5 C 88 % 1010,9 hPa 0,0 mm 8,3 km/h (2 Bft) S 180 0 min 0 W/m 7,6 C 8,4 C 14,8 km/h (3 Bft)
11/12/2011 19:00 9,5 C 88 % 1010,9 hPa 0,0 mm 6,5 km/h (2 Bft) S-SO 202 0 min 0 W/m 7,6 C 8,8 C 14,4 km/h (3 Bft)
11/12/2011 19:05 9,5 C 87 % 1011,0 hPa 0,0 mm 6,1 km/h (2 Bft) S-SO 202 0 min 0 W/m 7,4 C 8,9 C 12,2 km/h (2 Bft)
11/12/2011 19:10 9,5 C 88 % 1010,9 hPa 0,0 mm 10,4 km/h (2 Bft) S 180 0 min 0 W/m 7,6 C 8,0 C 15,1 km/h (3 Bft)
11/12/2011 19:15 9,5 C 88 % 1011,0 hPa 0,0 mm 9,4 km/h (2 Bft) S-SO 202 0 min 0 W/m 7,6 C 8,1 C 16,9 km/h (3 Bft)
11/12/2011 19:20 9,5 C 88 % 1010,9 hPa 0,0 mm 8,3 km/h (2 Bft) S-SO 202 0 min 0 W/m 7,6 C 8,4 C 12,6 km/h (3 Bft)
11/12/2011 19:25 9,4 C 89 % 1010,8 hPa 0,0 mm 9,0 km/h (2 Bft) S-SO 202 0 min 0 W/m 7,7 C 8,1 C 16,2 km/h (3 Bft)
11/12/2011 19:30 9,4 C 89 % 1010,9 hPa 0,1 mm 8,3 km/h (2 Bft) S-SO 202 0 min 0 W/m 7,7 C 8,2 C 11,9 km/h (2 Bft)
11/12/2011 19:35 9,3 C 90 % 1010,9 hPa 0,0 mm 7,9 km/h (2 Bft) S-SO 202 0 min 0 W/m 7,7 C 8,2 C 11,5 km/h (2 Bft)
11/12/2011 19:40 9,3 C 90 % 1010,9 hPa 0,0 mm 8,6 km/h (2 Bft) S-SO 202 0 min 0 W/m 7,7 C 8,1 C 8,6 km/h (2 Bft)
11/12/2011 19:45 9,2 C 90 % 1010,8 hPa 0,1 mm 9,0 km/h (2 Bft) S-SO 202 0 min 0 W/m 7,6 C 7,9 C 14,0 km/h (3 Bft)
11/12/2011 19:50 9,2 C 91 % 1010,8 hPa 0,0 mm 5,4 km/h (2 Bft) S-SO 202 0 min 0 W/m 7,8 C 8,7 C 5,4 km/h (2 Bft)
11/12/2011 19:55 9,1 C 91 % 1010,8 hPa 0,1 mm 11,5 km/h (2 Bft) S-SO 202 0 min 0 W/m 7,7 C 7,3 C 14,8 km/h (3 Bft)
11/12/2011 20:00 9,1 C 91 % 1010,7 hPa 0,0 mm 10,8 km/h (2 Bft) SO 225 0 min 0 W/m 7,7 C 7,4 C 10,8 km/h (2 Bft)
11/12/2011 20:05 9,1 C 92 % 1010,7 hPa 0,1 mm 6,1 km/h (2 Bft) S-SO 202 0 min 0 W/m 7,9 C 8,4 C 7,6 km/h (2 Bft)
11/12/2011 20:10 8,9 C 92 % 1010,6 hPa 0,0 mm 7,2 km/h (2 Bft) S-SO 202 0 min 0 W/m 7,7 C 7,9 C 9,0 km/h (2 Bft)
11/12/2011 20:15 8,9 C 92 % 1010,7 hPa 0,0 mm 6,8 km/h (2 Bft) S-SO 202 0 min 0 W/m 7,7 C 8,0 C 9,4 km/h (2 Bft)
11/12/2011 20:20 8,9 C 93 % 1010,7 hPa 0,0 mm 8,6 km/h (2 Bft) S-SO 202 0 min 0 W/m 7,8 C 7,6 C 12,6 km/h (3 Bft)
11/12/2011 20:25 8,9 C 93 % 1010,6 hPa 0,1 mm 9,4 km/h (2 Bft) S-SO 202 0 min 0 W/m 7,8 C 7,4 C 13,3 km/h (3 Bft)
11/12/2011 20:30 8,9 C 93 % 1010,6 hPa 0,0 mm 9,7 km/h (2 Bft) SO 225 0 min 0 W/m 7,8 C 7,4 C 14,8 km/h (3 Bft)
11/12/2011 20:35 8,9 C 93 % 1010,5 hPa 0,1 mm 7,6 km/h (2 Bft) SO 225 0 min 0 W/m 7,8 C 7,8 C 10,1 km/h (2 Bft)
11/12/2011 20:40 8,9 C 93 % 1010,5 hPa 0,0 mm 6,8 km/h (2 Bft) O-SO 247 0 min 0 W/m 7,8 C 8,0 C 9,7 km/h (2 Bft)
11/12/2011 20:45 8,9 C 94 % 1010,4 hPa 0,0 mm 10,1 km/h (2 Bft) S-SO 202 0 min 0 W/m 8,0 C 7,3 C 14,0 km/h (3 Bft)
11/12/2011 20:50 8,9 C 94 % 1010,3 hPa 0,0 mm 10,8 km/h (2 Bft) S-SO 202 0 min 0 W/m 8,0 C 7,2 C 12,6 km/h (3 Bft)
11/12/2011 20:55 9,0 C 94 % 1010,4 hPa 0,0 mm 5,4 km/h (2 Bft) SO 225 0 min 0 W/m 8,1 C 8,5 C 13,0 km/h (3 Bft)
11/12/2011 21:00 9,0 C 94 % 1010,3 hPa 0,0 mm 5,4 km/h (2 Bft) S-SO 202 0 min 0 W/m 8,1 C 8,5 C 7,6 km/h (2 Bft)
11/12/2011 21:05 9,1 C 94 % 1010,3 hPa 0,0 mm 6,5 km/h (2 Bft) SO 225 0 min 0 W/m 8,2 C 8,3 C 11,5 km/h (2 Bft)
11/12/2011 21:10 9,1 C 94 % 1010,2 hPa 0,0 mm 9,7 km/h (2 Bft) S-SO 202 0 min 0 W/m 8,2 C 7,6 C 11,5 km/h (2 Bft)
11/12/2011 21:15 9,1 C 94 % 1010,2 hPa 0,0 mm 10,1 km/h (2 Bft) S-SO 202 0 min 0 W/m 8,2 C 7,5 C 17,3 km/h (3 Bft)
11/12/2011 21:20 9,1 C 94 % 1010,2 hPa 0,0 mm 5,4 km/h (2 Bft) S-SO 202 0 min 0 W/m 8,2 C 8,6 C 8,6 km/h (2 Bft)
11/12/2011 21:25 9,2 C 94 % 1010,2 hPa 0,0 mm 9,0 km/h (2 Bft) S-SO 202 0 min 0 W/m 8,3 C 7,9 C 12,2 km/h (2 Bft)
11/12/2011 21:30 9,2 C 94 % 1010,0 hPa 0,0 mm 9,7 km/h (2 Bft) S-SO 202 0 min 0 W/m 8,3 C 7,7 C 9,7 km/h (2 Bft)
11/12/2011 21:35 9,3 C 94 % 1010,1 hPa 0,1 mm 8,6 km/h (2 Bft) SO 225 0 min 0 W/m 8,4 C 8,1 C 14,0 km/h (3 Bft)
11/12/2011 21:40 9,3 C 94 % 1010,0 hPa 0,0 mm 10,8 km/h (2 Bft) S-SO 202 0 min 0 W/m 8,4 C 7,7 C 12,6 km/h (3 Bft)
11/12/2011 21:45 9,4 C 94 % 1010,0 hPa 0,0 mm 10,8 km/h (2 Bft) SO 225 0 min 0 W/m 8,5 C 7,8 C 15,1 km/h (3 Bft)
11/12/2011 21:50 9,4 C 94 % 1009,9 hPa 0,0 mm 4,0 km/h (1 Bft) S-SO 202 0 min 0 W/m 8,5 C 9,4 C 7,9 km/h (2 Bft)
11/12/2011 21:55 9,4 C 94 % 1010,0 hPa 0,0 mm 7,9 km/h (2 Bft) S-SO 202 0 min 0 W/m 8,5 C 8,3 C 12,6 km/h (3 Bft)
11/12/2011 22:00 9,5 C 94 % 1009,9 hPa 0,0 mm 8,3 km/h (2 Bft) S 180 0 min 0 W/m 8,6 C 8,4 C 13,3 km/h (3 Bft)
11/12/2011 22:05 9,5 C 94 % 1009,9 hPa 0,0 mm 9,0 km/h (2 Bft) SO 225 0 min 0 W/m 8,6 C 8,2 C 11,5 km/h (2 Bft)
11/12/2011 22:10 9,5 C 94 % 1009,9 hPa 0,0 mm 11,5 km/h (2 Bft) S-SO 202 0 min 0 W/m 8,6 C 7,8 C 11,5 km/h (2 Bft)
11/12/2011 22:15 9,6 C 94 % 1009,8 hPa 0,0 mm 8,6 km/h (2 Bft) SO 225 0 min 0 W/m 8,7 C 8,4 C 9,4 km/h (2 Bft)
11/12/2011 22:20 9,6 C 94 % 1009,8 hPa 0,0 mm 9,7 km/h (2 Bft) O-SO 247 0 min 0 W/m 8,7 C 8,2 C 12,2 km/h (2 Bft)
11/12/2011 22:25 9,6 C 94 % 1009,8 hPa 0,0 mm 9,4 km/h (2 Bft) SO 225 0 min 0 W/m 8,7 C 8,3 C 10,8 km/h (2 Bft)
11/12/2011 22:30 9,6 C 94 % 1009,8 hPa 0,0 mm 8,6 km/h (2 Bft) S-SO 202 0 min 0 W/m 8,7 C 8,4 C 14,8 km/h (3 Bft)
11/12/2011 22:35 9,7 C 94 % 1009,8 hPa 0,0 mm 6,8 km/h (2 Bft) O-SO 247 0 min 0 W/m 8,8 C 8,9 C 10,1 km/h (2 Bft)
11/12/2011 22:40 9,7 C 94 % 1009,6 hPa 0,0 mm 10,4 km/h (2 Bft) S-SO 202 0 min 0 W/m 8,8 C 8,2 C 19,1 km/h (3 Bft)
11/12/2011 22:45 9,6 C 94 % 1009,6 hPa 0,0 mm 8,6 km/h (2 Bft) SO 225 0 min 0 W/m 8,7 C 8,4 C 8,6 km/h (2 Bft)
11/12/2011 22:50 9,6 C 94 % 1009,5 hPa 0,0 mm 13,0 km/h (3 Bft) SO 225 0 min 0 W/m 8,7 C 7,7 C 17,6 km/h (3 Bft)
11/12/2011 22:55 9,6 C 94 % 1009,5 hPa 0,0 mm 8,3 km/h (2 Bft) S-SO 202 0 min 0 W/m 8,7 C 8,5 C 9,0 km/h (2 Bft)
11/12/2011 23:00 9,6 C 94 % 1009,5 hPa 0,1 mm 11,9 km/h (2 Bft) S-SO 202 0 min 0 W/m 8,7 C 7,8 C 16,6 km/h (3 Bft)
11/12/2011 23:05 9,6 C 94 % 1009,5 hPa 0,1 mm 9,0 km/h (2 Bft) S-SO 202 0 min 0 W/m 8,7 C 8,3 C 14,4 km/h (3 Bft)
11/12/2011 23:10 9,6 C 94 % 1009,4 hPa 0,0 mm 12,2 km/h (2 Bft) S-SO 202 0 min 0 W/m 8,7 C 7,8 C 17,3 km/h (3 Bft)
11/12/2011 23:15 9,6 C 94 % 1009,4 hPa 0,0 mm 8,6 km/h (2 Bft) S-SO 202 0 min 0 W/m 8,7 C 8,4 C 11,5 km/h (2 Bft)
11/12/2011 23:20 9,6 C 94 % 1009,3 hPa 0,0 mm 5,8 km/h (2 Bft) S-SO 202 0 min 0 W/m 8,7 C 9,1 C 7,9 km/h (2 Bft)
11/12/2011 23:25 9,6 C 94 % 1009,3 hPa 0,0 mm 10,1 km/h (2 Bft) S-SO 202 0 min 0 W/m 8,7 C 8,1 C 13,3 km/h (3 Bft)
11/12/2011 23:30 9,6 C 94 % 1009,2 hPa 0,0 mm 6,8 km/h (2 Bft) S-SO 202 0 min 0 W/m 8,7 C 8,8 C 9,4 km/h (2 Bft)
11/12/2011 23:35 9,6 C 94 % 1009,2 hPa 0,0 mm 8,6 km/h (2 Bft) SO 225 0 min 0 W/m 8,7 C 8,4 C 11,5 km/h (2 Bft)
11/12/2011 23:40 9,6 C 94 % 1009,1 hPa 0,0 mm 9,0 km/h (2 Bft) SO 225 0 min 0 W/m 8,7 C 8,3 C 12,6 km/h (3 Bft)
11/12/2011 23:45 9,7 C 94 % 1009,1 hPa 0,0 mm 6,8 km/h (2 Bft) SO 225 0 min 0 W/m 8,8 C 8,9 C 8,6 km/h (2 Bft)
11/12/2011 23:50 9,8 C 94 % 1009,1 hPa 0,0 mm 13,3 km/h (3 Bft) S-SO 202 0 min 0 W/m 8,9 C 7,9 C 17,6 km/h (3 Bft)
11/12/2011 23:55 9,8 C 94 % 1009,0 hPa 0,1 mm 10,4 km/h (2 Bft) S-SO 202 0 min 0 W/m 8,9 C 8,3 C 10,4 km/h (2 Bft)
_ Min-Heure 04:55 19:05 23:55 - 11:00 - - - - 04:55 20:50 11:00
Minimum _ 8,1 C 87 % 1009,0 hPa - 0,0 km/h (0 Bft) - - - - 7,3 C 7,2 C 0,0 km/h (0 Bft)
_ Max-Heure 15:55 10:55 00:20 23:55 23:50 - - 23:55 23:55 23:55 15:55 22:40
Maximum _ 10,3 C 96 % 1015,9 hPa 0,1 mm 13,3 km/h
S-SO (3 Bft)
- - 0 min 0 W/m 8,9 C 10,3 C 19,1 km/h
S-SO (3 Bft)
Moyenne _ 9,2 C 93 % 1012,9 hPa #1,1 mm 3,4 km/h (1 Bft) E-SE - #0 min. 0 W/m 8,1 C 8,8 C 5,1 km/h (1 Bft)
Saint Bonnet de Bellac- Haute Vienne - France